Temperature
22 21 21 21 20 20 20 20 19 19 19 19 19 18 18 18 18 18 18 18 18 18 18 18 18 17 17 17 17 17 17 17 17 17 17 17 17 17 17 17 17 17 17
21 21 21 21 20 20 20 20 20 19 19 19 19 19 18 18 18 18 18 18 18 18 18 18 18 17 17 17 17 17 17 17 17 17 17 17 17 17 17 17 17 17 17
22 22 21 21 21 20 20 20 20 19 19 19 19 19 19 18 18 18 18 18 18 18 18 18 18 17 17 17 17 17 17 17 17 17 17 17 17 17 17 17 17 17 17
22 22 22 21 21 21 21 20 20 20 20 19 19 19 19 19 19 18 18 18 18 18 18 18 18 18 18 17 17 17 17 17 17 17 17 17 17 17 16 17 17 17 17
23 22 22 22 22 21 21 21 20 20 20 19 19 19 19 19 19 19 18 18 18 18 18 18 18 18 18 17 17 17 17 17 17 17 17 17 17 17 16 16 17 17 17
23 23 22 22 22 21 21 21 20 20 20 20 19 19 19 19 19 19 19 18 18 18 18 18 18 18 18 17 17 17 17 17 17 17 17 17 17 16 16 16 16 16 16
23 23 22 22 22 22 21 21 20 20 20 20 20 19 19 19 19 19 19 18 18 18 18 18 18 18 18 17 17 17 17 17 17 17 17 17 16 16 16 16 16 16 16
22 22 23 22 22 22 21 21 21 20 20 20 20 19 19 19 19 19 19 19 19 19 18 18 18 18 18 17 17 17 17 17 17 17 17 16 16 16 16 16 16 15 15
23 23 23 22 22 22 21 21 21 20 20 20 20 19 19 19 19 19 19 19 19 18 18 18 18 18 17 17 17 17 17 17 17 17 16 16 16 16 16 16 15 15 15
22 22 22 22 22 22 21 21 21 21 20 20 20 19 19 19 19 19 19 18 18 18 18 18 18 18 17 17 17 17 17 17 17 16 16 16 16 16 16 15 15 15 15
22 22 22 22 22 22 21 21 21 21 20 20 20 19 19 19 19 19 19 18 18 18 18 18 18 18 17 17 17 17 16 16 16 16 16 16 16 16 15 15 15 15 15
23 22 22 22 22 21 21 21 21 20 20 20 20 19 19 19 19 19 19 18 18 18 18 17 17 17 17 17 17 17 16 16 16 16 16 16 15 15 15 15 15 15 14
22 22 22 22 22 22 21 21 20 20 20 20 19 19 19 19 19 19 18 18 18 18 18 17 17 17 17 17 16 16 16 16 16 16 16 15 15 15 15 15 14 14 14
21 21 22 22 21 21 21 21 21 20 20 19 19 19 19 19 18 18 18 18 18 18 18 17 17 17 17 16 16 16 16 16 15 15 15 15 15 15 14 14 14 14 14
21 21 21 21 21 21 21 20 20 20 19 19 19 19 19 18 18 18 18 18 18 18 17 17 17 16 16 16 16 16 16 15 15 15 15 15 15 14 14 14 14 14 14
21 21 21 21 21 21 20 20 20 19 19 19 19 18 18 18 18 18 18 18 17 17 17 17 16 16 16 16 16 16 15 15 15 15 15 15 14 14 14 14 14 14 13
21 21 21 20 20 20 20 20 19 19 19 19 18 18 18 18 18 17 17 17 17 17 16 16 16 16 16 15 15 15 15 15 15 15 15 14 14 14 14 14 14 13 13
21 21 20 20 20 20 20 19 19 19 18 18 18 18 17 17 17 17 17 17 16 16 16 16 16 16 15 15 15 15 15 15 14 14 14 14 14 14 14 13 13 13 13
20 20 20 20 20 20 19 19 19 18 18 18 18 17 17 17 17 17 16 16 16 16 16 15 15 15 15 15 15 14 14 14 14 14 14 14 14 14 13 13 13 13 13
20 20 20 20 19 19 19 19 19 18 18 17 17 17 17 17 17 16 16 16 16 16 15 15 15 15 14 14 14 14 14 14 14 14 14 13 13 13 13 13 13 13 13
19 19 19 19 19 19 19 19 18 18 17 17 17 17 17 16 16 16 16 16 15 15 15 15 14 14 14 14 14 14 14 13 13 13 13 13 13 13 13 13 12 12 12
19 19 19 19 19 18 18 18 18 18 17 17 17 17 16 16 16 16 16 15 15 15 15 14 14 14 14 14 14 14 13 13 13 13 13 13 13 13 12 12 12 12 12
18 18 18 18 18 18 18 18 17 17 17 16 16 16 16 16 15 15 15 15 15 15 14 14 14 14 14 14 13 13 13 13 13 13 13 13 13 12 12 12 12 12 12
18 18 18 17 17 17 17 17 17 16 16 16 16 15 15 15 15 15 15 14 14 14 14 14 14 14 13 13 13 13 13 13 13 13 12 12 12 12 12 12 12 12 11
17 17 17 17 17 17 17 16 16 16 16 15 15 15 15 14 14 14 14 14 14 14 14 14 13 13 13 13 13 13 13 13 12 12 12 12 12 12 12 12 11 11 11
17 17 17 17 16 16 16 16 16 15 15 15 15 15 14 14 14 14 14 14 13 13 13 13 13 13 13 13 13 13 13 12 12 12 12 12 11 11 11 11 11 11 11
Wind_Speed
6 5 5 5 4 4 3 3 3 2 2 2 1 1 1 1 1 1 2 2 2 2 2 2 2 2 2 1 2 2 2 1 1 2 3 3 2 2 2 1 1 2 2
4 4 5 5 5 5 5 4 4 3 3 2 1 1 1 0 0 1 3 3 2 2 2 1 1 1 1 2 2 2 1 0 1 1 1 3 3 3 2 2 1 2 2
8 7 6 6 5 6 7 6 5 4 3 3 2 2 2 2 2 2 2 2 2 1 1 1 1 1 1 1 2 2 2 1 0 1 2 1 1 2 2 2 2 2 2
8 7 7 7 7 7 6 6 5 4 3 3 3 3 2 1 1 1 1 2 2 1 0 1 1 1 1 2 2 2 2 2 1 0 1 1 2 1 2 2 2 3 2
9 9 9 9 8 7 6 5 5 4 3 3 4 3 2 2 1 0 1 2 2 2 1 0 1 1 1 2 1 1 2 2 2 1 1 1 1 1 1 2 3 3 2
8 8 7 6 5 5 5 5 5 4 4 4 4 4 4 3 1 1 1 1 1 2 2 0 1 1 1 1 1 1 2 2 2 2 2 2 2 2 2 2 2 2 3
7 7 7 7 7 7 6 5 5 5 4 4 4 4 4 3 3 3 2 1 1 2 2 1 1 1 1 1 1 1 1 2 2 2 2 2 2 2 2 2 2 2 2
6 7 8 8 8 7 6 6 6 5 4 4 3 3 3 2 2 2 2 2 2 3 2 1 1 1 1 1 1 1 1 1 1 2 1 1 2 2 2 2 2 1 2
6 6 6 5 6 6 7 7 7 5 4 4 3 2 2 3 2 2 2 2 2 2 1 1 1 0 1 1 2 1 1 1 1 1 1 1 1 2 2 2 3 2 2
4 5 5 5 4 5 5 5 6 5 4 4 3 3 3 3 3 2 2 2 2 1 1 1 1 0 1 1 1 1 1 1 1 1 1 1 1 1 1 2 2 2 3
4 4 4 4 4 3 3 4 4 4 3 3 3 3 3 2 2 2 3 2 2 1 1 1 1 1 0 1 1 2 1 1 1 1 1 2 1 1 1 1 1 2 2
3 3 3 4 4 4 4 4 4 4 4 3 3 3 2 2 2 3 2 2 1 1 2 1 1 1 1 1 2 2 2 2 2 2 2 2 2 2 2 2 2 2 3
1 2 3 4 5 5 5 5 4 4 3 3 3 2 2 2 2 3 2 1 1 1 1 1 2 2 2 2 2 2 2 2 3 3 3 3 2 3 3 2 3 3 2
1 1 2 3 4 5 5 5 5 4 3 3 3 3 2 2 2 2 1 1 1 1 1 2 2 2 2 2 2 2 2 2 3 3 3 4 4 4 4 3 3 3 3
1 0 1 2 2 3 4 4 4 3 4 4 4 3 2 1 1 1 1 0 1 1 1 1 2 2 2 2 3 3 3 2 3 3 4 4 4 4 4 3 4 3 3
1 1 1 1 2 3 4 4 4 4 4 4 4 3 2 1 1 2 1 1 1 1 1 1 2 2 2 3 3 3 3 2 2 3 4 4 4 5 5 5 5 5 5
1 1 1 1 1 2 3 4 5 4 4 4 3 3 2 2 2 2 1 1 2 1 2 2 2 3 3 4 3 3 2 2 3 3 4 4 4 4 4 5 5 4 5
2 1 1 1 1 1 1 2 2 3 3 3 3 3 3 3 2 2 2 2 2 2 2 2 3 3 4 3 3 3 2 2 3 3 4 4 4 4 3 3 4 4 5
2 1 1 1 0 0 1 2 2 3 2 3 3 3 3 3 2 2 3 2 2 2 2 2 2 3 4 4 3 2 2 2 3 3 3 3 4 5 3 2 3 4 5
1 0 0 1 1 1 1 3 2 2 3 4 4 3 4 4 4 4 3 2 2 2 2 2 2 2 3 4 3 2 2 2 3 3 3 3 4 4 3 2 3 5 5
1 0 1 0 1 1 2 3 3 3 4 3 2 2 3 3 4 3 2 1 1 1 1 1 2 2 3 4 4 2 2 2 2 3 3 3 4 4 3 3 4 6 5
1 1 1 1 1 1 2 2 2 3 1 1 1 1 1 2 2 1 1 1 1 1 1 1 2 2 3 3 4 3 3 3 3 3 3 4 4 4 4 3 4 4 3
0 0 1 1 2 1 2 2 2 1 1 1 1 0 0 1 1 1 1 1 1 1 2 2 3 3 3 3 4 3 3 3 2 2 3 4 4 3 3 4 4 3 2
1 0 1 0 1 1 1 1 1 2 2 2 1 1 0 1 1 0 1 1 2 2 2 2 3 3 3 3 3 2 2 3 2 2 3 3 3 2 3 3 3 2 2
1 0 1 1 1 1 0 0 1 2 3 2 1 1 1 1 1 1 1 2 2 3 3 3 3 3 4 5 4 2 2 2 2 1 2 2 3 3 3 3 3 3 2
0 0 1 1 2 1 1 1 1 2 3 1 1 1 1 1 1 1 2 2 2 2 4 4 3 3 4 4 2 3 3 2 1 1 1 2 3 3 3 4 4 3 3
Wind_Direction
217 198 191 182 170 169 170 177 171 167 128 105 104 78 18 357 11 4 7 25 58 83 109 112 96 100 107 113 112 111 88 56 50 49 15 8 15 19 12 14 15 3 0
207 207 195 185 183 186 189 188 187 180 172 164 151 146 137 76 20 2 12 15 39 63 101 120 128 129 128 118 126 132 116 63 59 89 51 358 356 6 11 17 15 353 357
204 202 204 203 192 197 198 196 194 189 185 166 119 90 66 41 33 18 355 347 8 32 88 147 158 165 160 163 172 164 153 174 19 115 131 129 277 320 340 353 360 349 344
202 200 205 207 205 206 196 191 189 186 184 159 149 153 156 171 223 233 307 338 4 4 19 138 158 183 182 186 204 174 166 161 187 183 156 175 175 186 315 328 337 336 328
201 200 204 206 205 198 190 187 183 182 178 167 167 164 174 190 208 66 357 345 351 354 345 112 135 174 185 195 194 165 165 174 180 181 169 146 138 175 196 289 322 333 316
205 206 204 197 196 189 185 178 178 186 179 175 174 174 181 182 186 242 273 313 323 326 324 332 161 186 193 199 199 188 184 192 188 184 173 170 176 192 189 232 274 298 302
198 201 197 196 196 191 191 183 179 193 190 185 188 190 190 186 202 223 223 244 284 283 278 267 217 204 215 208 179 179 212 202 193 193 202 200 209 184 175 189 242 271 290
196 203 205 202 201 197 189 184 188 196 192 192 198 194 188 190 218 222 216 226 241 253 255 245 236 212 195 180 157 176 223 187 199 213 204 214 230 196 186 185 188 263 285
192 201 200 192 194 193 191 185 184 189 195 193 190 195 192 189 213 236 222 235 246 253 243 225 225 210 173 167 157 176 211 185 202 214 217 225 230 207 210 197 190 193 255
194 196 187 175 179 191 191 178 177 186 187 178 188 207 207 209 204 199 231 247 249 252 231 215 192 152 137 154 160 189 208 177 245 225 231 258 249 231 212 202 207 204 212
202 198 184 164 156 152 158 170 176 175 178 183 192 218 217 212 201 214 228 238 245 236 230 224 211 203 193 184 186 214 204 214 263 272 254 273 259 239 227 195 197 205 205
195 179 164 147 150 163 169 175 181 185 190 181 188 219 226 215 220 233 233 222 225 230 224 211 219 235 239 223 217 228 222 222 244 261 261 272 267 254 243 221 229 234 223
159 133 140 158 171 179 184 187 191 197 188 169 176 199 219 221 240 247 240 216 210 227 221 199 223 240 243 240 234 229 232 234 242 246 247 258 254 262 258 246 245 248 245
120 139 173 184 185 187 188 190 199 198 179 166 176 195 213 222 238 243 236 220 204 217 235 231 238 243 245 249 241 233 241 251 261 259 254 252 242 246 250 251 249 247 248
41 194 212 207 193 186 189 192 199 191 177 174 187 206 210 204 220 251 256 264 247 249 248 256 275 269 253 260 252 245 244 248 272 279 271 257 248 244 245 251 247 240 245
308 309 286 229 210 204 199 191 197 191 175 183 200 205 188 188 216 238 245 249 262 280 280 263 267 272 273 281 264 247 248 242 249 268 280 275 266 265 259 258 250 236 238
269 262 254 241 248 235 209 201 197 181 177 190 197 190 190 213 231 238 246 250 251 256 268 260 249 255 269 273 264 246 238 247 251 256 272 281 286 278 273 272 273 263 250
262 267 294 312 288 239 206 189 170 167 183 198 203 196 194 216 230 242 254 260 252 248 252 260 260 264 280 289 280 266 248 255 265 262 260 266 284 289 279 280 283 276 269
262 250 229 236 248 235 186 149 150 164 182 209 211 206 201 208 213 229 252 256 237 250 258 263 255 259 288 293 280 273 262 268 277 277 273 271 280 292 291 276 282 288 289
305 307 35 66 65 298 149 143 159 168 207 223 221 213 203 205 214 223 232 237 222 233 253 279 284 277 290 292 283 268 249 271 287 297 295 285 284 293 290 255 263 275 281
327 72 102 62 274 243 146 153 170 207 221 215 211 214 214 214 218 216 218 227 233 255 275 292 301 289 282 291 284 264 230 246 274 288 295 294 295 284 280 262 255 261 271
353 49 60 349 340 54 112 161 214 233 216 178 179 215 228 231 229 199 224 230 220 238 271 278 294 292 286 282 281 267 247 241 243 266 285 296 308 302 286 269 267 269 275
312 51 104 5 355 46 119 174 242 231 119 110 169 230 275 257 250 198 213 236 232 230 261 266 274 288 293 292 287 277 267 254 247 268 281 300 306 301 296 294 292 282 274
310 307 118 101 330 346 111 183 186 143 130 142 169 170 151 304 309 256 204 207 225 235 253 265 277 287 297 295 293 295 290 287 279 293 309 317 313 311 307 313 305 287 271
293 237 174 220 264 282 290 280 172 149 145 152 164 167 186 223 277 287 243 228 236 222 224 243 248 263 278 275 253 242 272 270 271 316 348 348 336 328 324 314 307 303 296
271 243 250 257 266 257 272 287 211 161 152 156 181 204 224 237 235 266 313 319 267 267 243 239 236 252 255 275 268 256 269 268 213 126 309 303 299 298 302 302 303 298 290
Height
1520 1522 1523 1524 1525 1525 1526 1526 1527 1528 1528 1528 1529 1529 1529 1530 1530 1531 1531 1531 1531 1531 1531 1530 1531 1531 1531 1530 1531 1531 1530 1530 1531 1530 1530 1530 1530 1530 1530 1530 1529 1529 1528
1519 1521 1522 1523 1524 1525 1525 1526 1527 1528 1528 1529 1530 1530 1530 1531 1531 1532 1532 1532 1531 1531 1531 1531 1531 1531 1531 1531 1531 1531 1531 1531 1531 1531 1530 1530 1531 1530 1529 1529 1529 1528 1528
1516 1517 1519 1521 1522 1524 1525 1526 1526 1527 1528 1529 1530 1530 1531 1531 1532 1532 1532 1532 1532 1532 1532 1532 1532 1531 1531 1531 1531 1531 1531 1531 1531 1531 1531 1531 1530 1529 1529 1528 1528 1527 1527
1514 1515 1517 1519 1520 1522 1524 1525 1526 1527 1528 1529 1530 1530 1531 1531 1532 1532 1532 1532 1532 1532 1532 1531 1531 1531 1531 1531 1530 1530 1530 1530 1530 1530 1530 1531 1530 1530 1528 1528 1527 1527 1526
1511 1513 1515 1517 1519 1521 1523 1524 1526 1527 1528 1529 1529 1530 1530 1531 1531 1531 1531 1532 1531 1531 1531 1531 1531 1530 1530 1530 1530 1530 1530 1530 1530 1529 1529 1529 1529 1528 1528 1527 1527 1526 1525
1509 1511 1514 1517 1518 1520 1522 1523 1525 1526 1527 1528 1529 1529 1530 1530 1531 1530 1530 1530 1531 1531 1531 1530 1530 1530 1529 1529 1529 1529 1529 1529 1528 1528 1528 1528 1527 1527 1526 1525 1525 1524 1524
1508 1510 1512 1514 1516 1518 1520 1522 1524 1525 1526 1527 1528 1529 1529 1530 1530 1530 1530 1529 1529 1530 1530 1529 1529 1529 1528 1528 1528 1528 1528 1527 1527 1527 1526 1526 1526 1525 1525 1524 1523 1522 1521
1505 1508 1509 1512 1514 1516 1519 1521 1522 1524 1525 1526 1527 1528 1528 1529 1529 1529 1529 1529 1528 1528 1528 1528 1528 1528 1527 1527 1526 1526 1526 1526 1525 1525 1525 1524 1524 1524 1523 1523 1522 1520 1519
1503 1505 1507 1509 1512 1514 1517 1519 1520 1522 1523 1524 1525 1526 1527 1527 1528 1528 1528 1528 1527 1527 1527 1527 1527 1526 1526 1526 1525 1525 1525 1524 1524 1523 1523 1522 1522 1521 1521 1520 1520 1520 1517
1503 1504 1506 1508 1510 1513 1515 1517 1519 1520 1522 1523 1524 1525 1525 1526 1525 1526 1526 1526 1526 1526 1526 1525 1525 1525 1525 1524 1524 1523 1523 1523 1522 1522 1521 1521 1520 1519 1518 1518 1517 1517 1516
1502 1503 1505 1507 1509 1512 1514 1515 1517 1519 1520 1521 1522 1523 1523 1524 1524 1524 1524 1524 1524 1524 1524 1524 1523 1523 1523 1522 1522 1522 1521 1521 1520 1520 1519 1518 1518 1517 1516 1515 1515 1514 1513
1502 1503 1504 1506 1508 1510 1512 1514 1516 1517 1518 1519 1520 1521 1521 1522 1522 1522 1522 1522 1522 1522 1522 1521 1521 1521 1520 1520 1519 1519 1519 1518 1518 1517 1517 1516 1516 1515 1514 1513 1512 1511 1510
1501 1502 1504 1505 1507 1509 1511 1512 1514 1515 1517 1518 1519 1519 1520 1520 1520 1520 1520 1520 1520 1520 1519 1519 1519 1518 1518 1517 1517 1516 1516 1515 1515 1515 1514 1513 1513 1512 1511 1510 1509 1509 1508
1502 1503 1504 1505 1506 1508 1509 1511 1512 1514 1515 1516 1517 1518 1518 1518 1518 1518 1518 1517 1517 1517 1517 1516 1516 1516 1515 1515 1514 1514 1513 1512 1512 1512 1511 1510 1510 1509 1508 1507 1506 1506 1505
1501 1502 1503 1504 1505 1506 1507 1508 1510 1511 1513 1514 1515 1515 1516 1516 1516 1516 1516 1515 1515 1515 1514 1514 1513 1513 1512 1512 1511 1511 1510 1509 1509 1509 1508 1507 1506 1505 1505 1504 1503 1502 1501
1501 1502 1503 1503 1504 1505 1506 1506 1508 1509 1510 1511 1512 1513 1514 1514 1514 1514 1513 1513 1513 1512 1512 1511 1511 1510 1510 1509 1508 1508 1507 1506 1506 1505 1505 1504 1503 1502 1501 1500 1499 1499 1498
1501 1501 1502 1502 1503 1503 1504 1505 1506 1507 1508 1509 1510 1511 1511 1511 1511 1511 1511 1510 1510 1509 1508 1508 1508 1507 1507 1506 1505 1505 1504 1503 1502 1501 1501 1500 1499 1498 1497 1496 1495 1494 1494
1499 1499 1500 1500 1501 1502 1502 1503 1504 1505 1506 1507 1507 1508 1508 1508 1508 1508 1508 1508 1507 1506 1505 1505 1504 1504 1503 1503 1502 1502 1501 1499 1499 1498 1497 1496 1495 1494 1493 1492 1491 1490 1489
1498 1499 1499 1499 1499 1500 1500 1501 1502 1503 1504 1505 1505 1505 1506 1506 1506 1506 1506 1505 1504 1503 1503 1502 1501 1501 1500 1500 1499 1498 1497 1496 1495 1495 1494 1493 1492 1491 1490 1488 1487 1486 1485
1498 1497 1497 1497 1497 1497 1498 1499 1500 1500 1501 1502 1503 1503 1503 1503 1503 1503 1503 1503 1502 1501 1500 1500 1499 1499 1498 1497 1496 1495 1494 1493 1492 1491 1491 1490 1489 1487 1486 1485 1483 1482 1482
1496 1496 1496 1496 1496 1496 1496 1496 1497 1498 1499 1500 1500 1501 1501 1501 1501 1501 1501 1500 1500 1499 1498 1497 1497 1496 1496 1495 1494 1492 1491 1490 1490 1489 1488 1487 1485 1484 1483 1481 1480 1479 1479
1494 1494 1494 1494 1495 1495 1495 1495 1496 1497 1497 1497 1498 1498 1499 1499 1499 1499 1498 1498 1498 1497 1496 1495 1494 1494 1493 1492 1491 1490 1489 1488 1487 1486 1485 1484 1482 1481 1479 1478 1477 1476 1476
1493 1493 1493 1493 1493 1494 1494 1494 1495 1495 1495 1496 1496 1496 1496 1496 1496 1496 1495 1495 1495 1494 1493 1492 1491 1491 1490 1489 1488 1487 1486 1485 1484 1483 1482 1481 1479 1478 1476 1475 1474 1473 1472
1492 1492 1492 1492 1492 1492 1492 1492 1493 1493 1494 1493 1493 1494 1494 1494 1494 1494 1493 1492 1492 1491 1490 1489 1488 1488 1487 1486 1486 1485 1484 1483 1482 1480 1479 1478 1477 1475 1473 1472 1471 1470 1469
1490 1490 1490 1490 1491 1492 1492 1492 1492 1492 1491 1491 1491 1492 1492 1491 1491 1491 1491 1490 1489 1489 1488 1486 1486 1485 1484 1484 1483 1482 1481 1480 1479 1478 1476 1475 1474 1472 1471 1470 1469 1468 1467
1489 1489 1490 1490 1490 1490 1490 1490 1490 1489 1489 1488 1488 1489 1489 1489 1488 1488 1487 1486 1486 1486 1485 1484 1483 1482 1482 1481 1480 1480 1478 1477 1476 1475 1473 1472 1471 1469 1468 1467 1466 1465 1464